Zurück zum Katalog

COSMOS 1912

AktivMilitärPO
NORAD 18791·PAYLOAD·🇷🇺 Russia

Gestartet Jan 15, 1988 von Plesetsk Cosmodrome

Loading…

Nächste Überflüge (nächste 24 Stunden)

TLE

AktuellSource: Space-Track

Epoche: Sep 14, 2026, 04:48 UTC

1 18791U 88002D   26257.20022993  .00000030  00000-0  10570-3 0  9992
2 18791  82.6132 181.6818 0009278 260.3172 261.2784 12.65073271785149

Verfolge COSMOS 1912 in Echtzeit mit AllMySat

Download on the App Store